00:00:19,76C8D5E0,0,0,19753,0,0,142
00:00:51,76C8D9E0,0,0,19753,0,0,141
00:01:23,76C8DDE0,0,0,19753,0,0,141
00:01:39,76C8DFE0,0,0,19753,0,0,142
00:01:55,76C8E1E0,0,0,19753,0,0,142
00:02:27,76C8E5E0,0,0,19753,0,0,143
00:02:59,76C8E9E0,0,0,19753,0,0,144
00:03:31,76C8EDE0,0,0,19753,0,0,144
00:04:03,76C8F1E0,0,0,19753,0,0,145
00:04:35,76C8F5E0,0,0,19753,0,0,146
00:05:07,76C8F9E0,0,0,19753,0,0,146
00:05:39,76C8FDE0,0,0,19753,0,0,145
00:06:11,76C901E0,0,0,19753,0,0,144
00:06:43,76C905E0,0,0,19753,0,0,143
00:07:15,76C909E0,0,0,19753,0,0,141
00:07:47,76C90DE0,0,0,19753,0,0,141
00:08:19,76C911E0,0,0,19753,0,0,142
00:08:51,76C915E0,0,0,19753,0,0,142
00:09:23,76C919E0,0,0,19753,0,0,143
00:09:55,76C91DE0,0,0,19753,0,0,144
00:10:11,76C91FE0,0,0,19753,0,0,144
00:10:27,76C921E0,0,0,19753,0,0,145
00:10:59,76C925E0,0,0,19753,0,0,145
00:11:31,76C929E0,0,0,19753,0,0,145
00:12:03,76C92DE0,0,0,19753,0,0,146
00:12:35,76C931E0,0,0,19753,0,0,145
00:13:07,76C935E0,0,0,19753,0,0,143
00:13:39,76C939E0,0,0,19753,0,0,142
00:14:11,76C93DE0,0,0,19753,0,0,141
00:14:43,76C941E0,0,0,19753,0,0,141
00:15:15,76C945E0,0,0,19753,0,0,142
00:15:47,76C949E0,0,0,19753,0,0,143
00:16:19,76C94DE0,0,0,19753,0,0,144
00:16:51,76C951E0,0,0,19753,0,0,144
00:17:23,76C955E0,0,0,19753,0,0,145
00:17:55,76C959E0,0,0,19753,0,0,145
00:18:27,76C95DE0,0,0,19753,0,0,146
00:18:43,76C95FE0,0,0,19753,0,0,146
00:18:59,76C961E0,0,0,19753,0,0,145
00:19:31,76C965E0,0,0,19753,0,0,143
00:20:03,76C969E0,0,0,19753,0,0,142
00:20:35,76C96DE0,0,0,19753,0,0,141
00:21:07,76C971E0,0,0,19753,0,0,141
00:21:39,76C975E0,0,0,19753,0,0,142
00:22:11,76C979E0,0,0,19753,0,0,143
00:22:43,76C97DE0,0,0,19753,0,0,143
00:23:15,76C981E0,0,0,19753,0,0,144
00:23:47,76C985E0,0,0,19753,0,0,145
00:24:19,76C989E0,0,0,19753,0,0,145
00:24:51,76C98DE0,0,0,19753,0,0,146
00:25:23,76C991E0,0,0,19753,0,0,145
00:25:55,76C995E0,0,0,19753,0,0,144
00:26:27,76C999E0,0,0,19753,0,0,142
00:26:59,76C99DE0,0,0,19753,0,0,141
00:27:15,76C99FE0,0,0,19753,0,0,141
00:27:31,76C9A1E0,0,0,19753,0,0,141
00:28:03,76C9A5E0,0,0,19753,0,0,142
00:28:35,76C9A9E0,0,0,19753,0,0,142
00:29:07,76C9ADE0,0,0,19753,0,0,143
00:29:39,76C9B1E0,0,0,19753,0,0,144
00:30:11,76C9B5E0,0,0,19753,0,0,145
00:30:43,76C9B9E0,0,0,19753,0,0,145
00:31:15,76C9BDE0,0,0,19753,0,0,146
00:31:47,76C9C1E0,0,0,19753,0,0,145
00:32:19,76C9C5E0,0,0,19753,0,0,144
00:32:51,76C9C9E0,0,0,19753,0,0,142
00:33:23,76C9CDE0,0,0,19753,0,0,141
00:33:55,76C9D1E0,0,0,19753,0,0,141
00:34:27,76C9D5E0,0,0,19753,0,0,142
00:34:59,76C9D9E0,0,0,19753,0,0,142
00:35:31,76C9DDE0,0,0,19753,0,0,143
00:35:47,76C9DFE0,0,0,19753,0,0,144
00:36:03,76C9E1E0,0,0,19753,0,0,144
00:36:35,76C9E5E0,0,0,19753,0,0,145
00:37:07,76C9E9E0,0,0,19753,0,0,145
00:37:39,76C9EDE0,0,0,19753,0,0,146
00:38:11,76C9F1E0,0,0,19753,0,0,146
00:38:43,76C9F5E0,0,0,19753,0,0,144
00:39:15,76C9F9E0,0,0,19753,0,0,143
00:39:47,76C9FDE0,0,0,19753,0,0,142
00:40:19,76CA01E0,0,0,19753,0,0,141
00:40:51,76CA05E0,0,0,19753,0,0,141
00:41:22,76CA09E0,0,0,19753,0,0,142
00:41:54,76CA0DE0,0,0,19753,0,0,143
00:42:26,76CA11E0,0,0,19753,0,0,144
00:42:58,76CA15E0,0,0,19753,0,0,144
00:43:30,76CA19E0,0,0,19753,0,0,145
00:44:02,76CA1DE0,0,0,19753,0,0,145
00:44:18,76CA1FE0,0,0,19753,0,0,145
00:44:34,76CA21E0,0,0,19753,0,0,146
00:45:06,76CA25E0,0,0,19753,0,0,146
00:45:38,76CA29E0,0,0,19753,0,0,144
00:46:10,76CA2DE0,0,0,19753,0,0,143
00:46:42,76CA31E0,0,0,19753,0,0,142
00:47:14,76CA35E0,0,0,19753,0,0,141
00:47:46,76CA39E0,0,0,19753,0,0,141
00:48:18,76CA3DE0,0,0,19753,0,0,142
00:48:50,76CA41E0,0,0,19753,0,0,143
00:49:22,76CA45E0,0,0,19753,0,0,144
00:49:54,76CA49E0,0,0,19753,0,0,144
00:50:26,76CA4DE0,0,0,19753,0,0,145
00:50:58,76CA51E0,0,0,19753,0,0,145
00:51:30,76CA55E0,0,0,19753,0,0,146
00:52:02,76CA59E0,0,0,19753,0,0,145
00:52:34,76CA5DE0,0,0,19753,0,0,144
00:52:50,76CA5FE0,0,0,19753,0,0,143
00:53:06,76CA61E0,0,0,19753,0,0,142
00:53:38,76CA65E0,0,0,19753,0,0,141
00:54:10,76CA69E0,0,0,19753,0,0,141
00:54:42,76CA6DE0,0,0,19753,0,0,142
00:55:14,76CA71E0,0,0,19753,0,0,143
00:55:46,76CA75E0,0,0,19753,0,0,143
00:56:18,76CA79E0,0,0,19753,0,0,144
00:56:50,76CA7DE0,0,0,19753,0,0,145
00:57:22,76CA81E0,0,0,19753,0,0,145
00:57:54,76CA85E0,0,0,19753,0,0,146
00:58:26,76CA89E0,0,0,19753,0,0,145
00:58:58,76CA8DE0,0,0,19753,0,0,144
00:59:30,76CA91E0,0,0,19753,0,0,143
01:00:02,76CA95E0,0,0,19753,0,0,141
01:00:34,76CA99E0,0,0,19753,0,0,141
01:01:06,76CA9DE0,0,0,19753,0,0,142
01:01:22,76CA9FE0,0,0,19753,0,0,142
01:01:38,76CAA1E0,0,0,19753,0,0,142
01:02:10,76CAA5E0,0,0,19753,0,0,143
01:02:42,76CAA9E0,0,0,19753,0,0,144
01:03:14,76CAADE0,0,0,19753,0,0,144
01:03:46,76CAB1E0,0,0,19753,0,0,145
01:04:18,76CAB5E0,0,0,19753,0,0,146
01:04:50,76CAB9E0,0,0,19753,0,0,146
01:05:22,76CABDE0,0,0,19753,0,0,145
01:05:54,76CAC1E0,0,0,19753,0,0,143
01:06:26,76CAC5E0,0,0,19753,0,0,142
01:06:58,76CAC9E0,0,0,19753,0,0,141
01:07:30,76CACDE0,0,0,19753,0,0,141
01:08:02,76CAD1E0,0,0,19753,0,0,142
01:08:34,76CAD5E0,0,0,19708,5,0,143
01:09:06,76CAD9E0,0,0,19708,4,0,144
01:09:38,76CADDE0,0,0,19708,6,0,144
01:09:54,76CADFE0,0,0,19708,6,0,145
01:10:10,76CAE1E0,0,0,19709,6,0,145
01:10:42,76CAE5E0,0,0,19709,6,0,145
01:11:14,76CAE9E0,0,0,19709,4,0,146
01:11:46,76CAEDE0,0,0,19708,5,0,146
01:12:18,76CAF1E0,0,0,19708,4,0,144
01:12:50,76CAF5E0,0,0,19708,5,0,143
01:13:22,76CAF9E0,0,0,19709,5,0,142
01:13:54,76CAFDE0,0,0,19707,6,0,141
01:14:26,76CB01E0,0,0,19710,6,0,141
01:14:58,76CB05E0,0,0,19707,5,0,142
01:15:30,76CB09E0,0,0,19709,4,0,143
01:16:02,76CB0DE0,0,0,19707,5,0,144
01:16:34,76CB11E0,0,0,19707,6,0,144
01:17:06,76CB15E0,0,0,19708,6,0,145
01:17:38,76CB19E0,0,0,19708,4,0,145
01:18:10,76CB1DE0,0,0,19708,5,0,146
01:18:26,76CB1FE0,0,0,19708,5,0,146
01:18:42,76CB21E0,0,0,19708,6,0,145
01:19:14,76CB25E0,0,0,19706,6,0,144
01:19:46,76CB29E0,0,0,19708,6,0,143
01:20:18,76CB2DE0,0,0,19706,7,0,142
01:20:50,76CB31E0,0,0,19707,7,0,141
01:21:22,76CB35E0,0,0,19708,5,0,141
01:21:54,76CB39E0,0,0,19707,5,0,142
01:22:26,76CB3DE0,0,0,19706,5,0,143
01:22:58,76CB41E0,0,0,19707,6,0,144
01:23:30,76CB45E0,0,0,19705,7,0,145
01:24:02,76CB49E0,0,0,19706,5,1,145
01:24:34,76CB4DE0,0,0,19704,5,0,146
01:25:06,76CB51E0,0,0,19704,7,0,146
01:25:38,76CB55E0,0,0,19704,6,0,145
01:26:10,76CB59E0,0,0,19704,5,0,143
01:26:42,76CB5DE0,0,0,19704,7,0,142
01:26:58,76CB5FE0,0,0,19704,7,0,142
01:27:14,76CB61E0,0,0,19705,4,0,141
01:27:46,76CB65E0,0,0,19704,5,1,141
01:28:18,76CB69E0,0,0,19704,4,0,142
01:28:50,76CB6DE0,0,0,19705,4,0,143
01:29:22,76CB71E0,0,0,19705,5,0,144
01:29:54,76CB75E0,0,0,19702,6,0,144
01:30:26,76CB79E0,0,0,19704,7,0,145
01:30:58,76CB7DE0,0,0,19704,7,0,146
01:31:30,76CB81E0,0,0,19703,6,0,146
01:32:02,76CB85E0,0,0,19703,4,0,145
01:32:34,76CB89E0,0,0,19700,6,0,143
01:33:06,76CB8DE0,0,0,19701,7,0,142
01:33:38,76CB91E0,0,0,19701,5,0,141
01:34:10,76CB95E0,0,0,19700,5,0,141
01:34:42,76CB99E0,0,0,19700,5,0,142
01:35:14,76CB9DE0,0,0,19699,6,0,143
01:35:30,76CB9FE0,0,0,19699,6,0,144
01:35:46,76CBA1E0,0,0,19698,6,1,144
01:36:18,76CBA5E0,0,0,19697,5,0,144
01:36:50,76CBA9E0,0,0,19697,4,0,145
01:37:22,76CBADE0,0,0,19697,5,1,146
01:37:54,76CBB1E0,0,0,19698,4,0,146
01:38:26,76CBB5E0,0,0,19698,4,0,144
01:38:58,76CBB9E0,0,0,19698,4,0,143
01:39:30,76CBBDE0,0,0,19698,3,0,142
01:40:02,76CBC1E0,0,0,19697,4,0,141
01:40:34,76CBC5E0,0,0,19698,3,0,141
01:41:06,76CBC9E0,0,0,19701,3,0,142
01:41:38,76CBCDE0,0,0,19699,4,0,143
01:42:10,76CBD1E0,0,0,19700,5,0,144
01:42:42,76CBD5E0,0,0,19701,4,0,144
01:43:14,76CBD9E0,0,0,19700,5,0,145
01:43:46,76CBDDE0,0,0,19702,3,0,146
01:44:02,76CBDFE0,0,0,19702,3,0,146
01:44:18,76CBE1E0,0,0,19698,4,0,146
01:44:50,76CBE5E0,0,0,19701,4,0,144
01:45:22,76CBE9E0,0,0,19698,4,1,143
01:45:54,76CBEDE0,0,0,19697,5,0,142
01:46:26,76CBF1E0,0,0,19697,4,0,141
01:46:58,76CBF5E0,0,0,19697,5,0,141
01:47:30,76CBF9E0,0,0,19695,5,0,143
01:48:02,76CBFDE0,0,0,19695,6,0,144
01:48:34,76CC01E0,0,0,19696,4,0,144
01:49:06,76CC05E0,0,0,19694,4,0,145
01:49:38,76CC09E0,0,0,19693,7,0,145
01:50:10,76CC0DE0,0,0,19692,6,0,146
01:50:42,76CC11E0,0,0,19691,7,0,146
01:51:14,76CC15E0,0,0,19692,8,0,144
01:51:46,76CC19E0,0,0,19690,6,0,143
01:52:18,76CC1DE0,0,0,19690,10,0,142
01:52:34,76CC1FE0,0,0,19690,10,0,141
01:52:50,76CC21E0,0,0,19689,4,0,141
01:53:22,76CC25E0,0,0,19688,6,0,141
01:53:54,76CC29E0,0,0,19688,7,0,142
01:54:26,76CC2DE0,0,0,19687,6,0,143
01:54:58,76CC31E0,0,0,19687,5,0,144
01:55:30,76CC35E0,0,0,19686,6,0,145
01:56:02,76CC39E0,0,0,19685,8,0,145
01:56:34,76CC3DE0,0,0,19687,3,0,146
01:57:06,76CC41E0,0,0,19686,7,0,146
01:57:38,76CC45E0,0,0,19684,4,0,144
01:58:10,76CC49E0,0,0,19684,5,0,143
01:58:42,76CC4DE0,0,0,19686,3,0,142
01:59:14,76CC51E0,0,0,19686,4,0,141
01:59:46,76CC55E0,0,0,19684,6,1,141
02:00:18,76CC59E0,0,0,19685,3,0,143
02:00:50,76CC5DE0,0,0,19685,4,0,144
02:01:06,76CC5FE0,0,0,19685,4,0,144
02:01:22,76CC61E0,0,0,19683,2,0,144
02:01:54,76CC65E0,0,0,19684,3,0,145
02:02:26,76CC69E0,0,0,19682,2,0,145
02:02:58,76CC6DE0,0,0,19682,3,0,146
02:03:30,76CC71E0,0,0,19681,2,0,145
02:04:02,76CC75E0,0,0,19682,5,1,144
02:04:34,76CC79E0,0,0,19682,5,0,142
02:05:06,76CC7DE0,0,0,19682,4,0,141
02:05:38,76CC81E0,0,0,19681,7,0,141
02:06:10,76CC85E0,0,0,19683,4,0,142
02:06:42,76CC89E0,0,0,19682,5,0,143
02:07:14,76CC8DE0,0,0,19683,5,0,144
02:07:46,76CC91E0,0,0,19683,6,0,144
02:08:18,76CC95E0,0,0,19683,5,0,145
02:08:50,76CC99E0,0,0,19683,5,0,145
02:09:22,76CC9DE0,0,0,19681,7,0,146
02:09:38,76CC9FE0,0,0,19681,7,0,146
02:09:54,76CCA1E0,0,0,19682,5,0,146
02:10:26,76CCA5E0,0,0,19681,10,1,144
02:10:58,76CCA9E0,0,0,19679,5,0,143
02:11:30,76CCADE0,0,0,19680,4,0,142
02:12:02,76CCB1E0,0,0,19680,3,0,141
02:12:34,76CCB5E0,0,0,19680,7,0,142
02:13:06,76CCB9E0,0,0,19680,6,1,143
02:13:38,76CCBDE0,0,0,19681,9,0,144
02:14:10,76CCC1E0,0,0,19679,4,0,144
02:14:42,76CCC5E0,0,0,19680,5,0,145
02:15:14,76CCC9E0,0,0,19681,6,0,145
02:15:46,76CCCDE0,0,0,19679,7,0,146
02:16:18,76CCD1E0,0,0,19678,5,0,146
02:16:50,76CCD5E0,0,0,19678,11,0,144
02:17:22,76CCD9E0,0,0,19679,5,0,143
02:17:54,76CCDDE0,0,0,19677,6,0,141
02:18:10,76CCDFE0,0,0,19677,6,0,141
02:18:26,76CCE1E0,0,0,19676,9,0,141
02:18:58,76CCE5E0,0,0,19677,4,0,142
02:19:30,76CCE9E0,0,0,19678,6,0,143
02:20:02,76CCEDE0,0,0,19678,5,0,143
02:20:34,76CCF1E0,0,0,19677,5,0,144
02:21:06,76CCF5E0,0,0,19677,5,0,145
02:21:38,76CCF9E0,0,0,19677,8,0,145
02:22:10,76CCFDE0,0,0,19677,9,0,146
02:22:42,76CD01E0,0,0,19677,6,0,145
02:23:14,76CD05E0,0,0,19676,10,0,144
02:23:46,76CD09E0,0,0,19676,8,0,143
02:24:18,76CD0DE0,0,0,19677,8,0,142
02:24:50,76CD11E0,0,0,19675,8,0,141
02:25:22,76CD15E0,0,0,19675,6,0,142
02:25:54,76CD19E0,0,0,19676,7,0,143
02:26:26,76CD1DE0,0,0,19675,5,0,143
02:26:42,76CD1FE0,0,0,19675,5,0,144
02:26:58,76CD21E0,0,0,19675,6,0,144
02:27:30,76CD25E0,0,0,19674,6,0,145
02:28:02,76CD29E0,0,0,19674,8,0,145
02:28:34,76CD2DE0,0,0,19673,9,0,146
02:29:06,76CD31E0,0,0,19676,5,0,145
02:29:38,76CD35E0,0,0,19672,6,0,144
02:30:10,76CD39E0,0,0,19672,7,0,143
02:30:42,76CD3DE0,0,0,19672,7,0,141
02:31:14,76CD41E0,0,0,19670,6,0,141
02:31:46,76CD45E0,0,0,19673,5,0,142
02:32:18,76CD49E0,0,0,19672,6,0,143
02:32:50,76CD4DE0,0,0,19671,6,0,144
02:33:22,76CD51E0,0,0,19671,4,0,144
02:33:54,76CD55E0,0,0,19671,4,0,145
02:34:26,76CD59E0,0,0,19671,4,0,146
02:34:58,76CD5DE0,0,0,19668,5,0,146
02:35:14,76CD5FE0,0,0,19668,5,0,146
02:35:30,76CD61E0,0,0,19677,6,0,145
02:36:02,76CD65E0,0,0,19667,4,0,144
02:36:34,76CD69E0,0,0,19668,5,0,143
02:37:06,76CD6DE0,0,0,19668,6,1,141
02:37:38,76CD71E0,0,0,19668,6,0,141
02:38:10,76CD75E0,0,0,19670,5,0,142
02:38:42,76CD79E0,0,0,19669,6,0,143
02:39:14,76CD7DE0,0,0,19670,4,0,144
02:39:46,76CD81E0,0,0,19672,6,0,144
02:40:18,76CD85E0,0,0,19673,4,0,145
02:40:50,76CD89E0,0,0,19671,7,0,146
02:41:22,76CD8DE0,0,0,19672,9,0,146
02:41:54,76CD91E0,0,0,19674,3,0,145
02:42:26,76CD95E0,0,0,19671,5,0,144
02:42:58,76CD99E0,0,0,19672,6,0,143
02:43:30,76CD9DE0,0,0,19672,5,0,141
02:43:46,76CD9FE0,0,0,19672,5,0,141
02:44:02,76CDA1E0,0,0,19672,4,0,141
02:44:34,76CDA5E0,0,0,19674,4,0,142
02:45:06,76CDA9E0,0,0,19672,6,0,143
02:45:38,76CDADE0,0,0,19674,6,0,144
02:46:10,76CDB1E0,0,0,19673,6,0,144
02:46:42,76CDB5E0,0,0,19675,6,0,145
02:47:14,76CDB9E0,0,0,19676,4,0,146
02:47:46,76CDBDE0,0,0,19676,7,0,146
02:48:18,76CDC1E0,0,0,19675,5,0,145
02:48:50,76CDC5E0,0,0,19676,6,0,144
02:49:22,76CDC9E0,0,0,19676,8,0,143
02:49:54,76CDCDE0,0,0,19675,5,0,141
02:50:26,76CDD1E0,0,0,19677,4,0,141
02:50:58,76CDD5E0,0,0,19677,6,0,142
02:51:30,76CDD9E0,0,0,19677,7,0,143
02:52:02,76CDDDE0,0,0,19678,6,0,144
02:52:18,76CDDFE0,0,0,19678,6,0,144
02:52:34,76CDE1E0,0,0,19678,8,0,144
02:53:06,76CDE5E0,0,0,19680,5,0,145
02:53:38,76CDE9E0,0,0,19680,4,0,146
02:54:10,76CDEDE0,0,0,19681,6,0,146
02:54:42,76CDF1E0,0,0,19679,5,0,145
02:55:14,76CDF5E0,0,0,19679,5,0,144
02:55:46,76CDF9E0,0,0,19680,5,0,143
02:56:18,76CDFDE0,0,0,19681,4,0,142
02:56:50,76CE01E0,0,0,19681,7,0,141
02:57:22,76CE05E0,0,0,19681,5,0,142
02:57:54,76CE09E0,0,0,19681,4,0,143
02:58:26,76CE0DE0,0,0,19683,7,0,144
02:58:58,76CE11E0,0,0,19682,7,0,144
02:59:30,76CE15E0,0,0,19684,6,0,145
03:00:02,76CE19E0,0,0,19684,8,0,145
03:00:34,76CE1DE0,0,0,19686,6,0,146
03:00:50,76CE1FE0,0,0,19686,6,0,146
03:01:06,76CE21E0,0,0,19686,6,0,145
03:01:38,76CE25E0,0,0,19686,5,0,144
03:02:10,76CE29E0,0,0,19687,5,0,143
03:02:42,76CE2DE0,0,0,19687,5,0,142
03:03:14,76CE31E0,0,0,19687,5,0,141
03:03:46,76CE35E0,0,0,19687,5,0,142
03:04:18,76CE39E0,0,0,19689,4,0,143
03:04:50,76CE3DE0,0,0,19690,5,0,144
03:05:22,76CE41E0,0,0,19692,7,0,144
03:05:54,76CE45E0,0,0,19692,6,0,145
03:06:26,76CE49E0,0,0,19694,4,0,146
03:06:58,76CE4DE0,0,0,19692,6,0,146
03:07:30,76CE51E0,0,0,19692,4,0,146
03:08:02,76CE55E0,0,0,19696,5,0,144
03:08:34,76CE59E0,0,0,19697,6,0,143
03:09:06,76CE5DE0,0,0,19698,5,0,142
03:09:22,76CE5FE0,0,0,19698,5,0,141
03:09:38,76CE61E0,0,0,19700,6,0,141
03:10:10,76CE65E0,0,0,19699,8,0,142
03:10:42,76CE69E0,0,0,19699,5,0,142
03:11:46,76CE71E0,0,0,19702,5,0,144
03:12:18,76CE75E0,0,0,19703,6,0,145
03:12:50,76CE79E0,0,0,19701,7,0,145
03:13:22,76CE7DE0,0,0,19703,7,0,146
03:13:54,76CE81E0,0,0,19703,9,0,146
03:14:26,76CE85E0,0,0,19704,10,0,144
03:14:58,76CE89E0,0,0,19705,4,0,143
03:15:30,76CE8DE0,0,0,19705,8,0,142
03:16:02,76CE91E0,0,0,19705,6,0,141
03:16:34,76CE95E0,0,0,19708,6,0,142
03:17:06,76CE99E0,0,0,19707,3,0,142
03:17:38,76CE9DE0,0,0,19708,6,0,143
03:17:54,76CE9FE0,0,0,19708,6,0,144
03:18:10,76CEA1E0,0,0,19709,5,0,144
03:20:18,76CEB1E0,0,0,19711,6,0,146
03:20:50,76CEB5E0,0,0,19711,5,0,145
03:21:22,76CEB9E0,0,0,19712,7,0,143
03:21:54,76CEBDE0,0,0,19714,5,0,142
03:22:26,76CEC1E0,0,0,19714,5,0,141
03:22:58,76CEC5E0,0,0,19715,4,0,141
03:23:30,76CEC9E0,0,0,19714,5,0,142
03:24:02,76CECDE0,0,0,19715,6,0,143
03:24:34,76CED1E0,0,0,19715,3,0,144
03:25:06,76CED5E0,0,0,19716,6,0,145
03:25:38,76CED9E0,0,0,19718,4,0,145
03:26:10,76CEDDE0,0,0,19720,5,0,146
03:26:26,76CEDFE0,0,0,19720,5,0,146
03:26:42,76CEE1E0,0,0,19718,5,0,146
03:27:14,76CEE5E0,0,0,19720,4,0,145
03:27:46,76CEE9E0,0,0,19721,7,0,144
03:28:18,76CEEDE0,0,0,19723,5,0,142
03:28:50,76CEF1E0,0,0,19722,4,0,141
03:29:22,76CEF5E0,0,0,19724,7,0,141
03:29:54,76CEF9E0,0,0,19726,4,0,142
03:30:26,76CEFDE0,0,0,19728,4,0,143
03:30:58,76CF01E0,0,0,19726,5,0,144
03:31:30,76CF05E0,0,0,19727,5,0,144
03:32:02,76CF09E0,0,0,19730,5,0,145
03:32:34,76CF0DE0,0,0,19729,4,0,146
03:33:06,76CF11E0,0,0,19732,5,0,146
03:33:38,76CF15E0,0,0,19731,4,0,145
03:34:10,76CF19E0,0,0,19733,5,0,144
03:34:42,76CF1DE0,0,0,19733,5,0,142
03:34:58,76CF1FE0,0,0,19733,5,0,142
03:35:14,76CF21E0,0,0,19735,5,0,141
03:35:46,76CF25E0,0,0,19736,3,0,141
03:36:18,76CF29E0,0,0,19735,5,0,142
03:36:50,76CF2DE0,0,0,19737,2,0,143
03:37:22,76CF31E0,0,0,19734,5,0,144
03:37:54,76CF35E0,0,0,19736,4,0,144
03:38:26,76CF39E0,0,0,19742,1,0,145
03:38:58,76CF3DE0,0,0,19734,3,0,146
03:39:30,76CF41E0,0,0,19734,3,0,146
03:40:02,76CF45E0,0,0,19734,3,0,145
03:40:34,76CF49E0,0,0,19734,3,0,144
03:41:06,76CF4DE0,0,0,19736,2,0,142
03:41:38,76CF51E0,0,0,19736,2,0,141
03:42:10,76CF55E0,0,0,19738,2,0,141
03:42:42,76CF59E0,0,0,19750,0,0,142
03:43:14,76CF5DE0,0,0,19748,0,0,143
03:43:30,76CF5FE0,0,0,19748,0,0,143
03:43:46,76CF61E0,0,0,19744,4,0,144
03:44:18,76CF65E0,0,0,19747,4,0,145
03:44:50,76CF69E0,0,0,19747,3,0,145
03:45:22,76CF6DE0,0,0,19747,3,0,146
03:45:54,76CF71E0,0,0,19747,6,0,146
03:46:26,76CF75E0,0,0,19748,4,0,145
03:46:58,76CF79E0,0,0,19749,5,0,143
03:47:30,76CF7DE0,0,0,19751,4,0,142
03:48:02,76CF81E0,0,0,19750,3,0,141
03:48:34,76CF85E0,0,0,19752,3,0,141
03:49:06,76CF89E0,0,0,19754,1,0,142
03:49:38,76CF8DE0,0,0,19757,2,0,143
03:50:10,76CF91E0,0,0,19757,2,0,144
03:50:42,76CF95E0,0,0,19758,1,0,145
03:51:14,76CF99E0,0,0,19749,2,0,145
03:51:46,76CF9DE0,0,0,19751,2,0,146
03:52:02,76CF9FE0,0,0,19751,2,0,146
03:52:18,76CFA1E0,0,0,19761,0,0,146
03:52:50,76CFA5E0,0,0,19761,1,0,144
03:53:22,76CFA9E0,0,0,19761,1,0,143
03:53:54,76CFADE0,0,0,19752,2,0,142
03:54:26,76CFB1E0,0,0,19752,2,0,141
03:54:58,76CFB5E0,0,0,19760,2,0,141
03:55:30,76CFB9E0,0,0,19761,5,0,142
03:56:02,76CFBDE0,0,0,19760,3,0,143
03:56:34,76CFC1E0,0,0,19761,3,0,144
03:57:06,76CFC5E0,0,0,19760,4,0,144
03:57:38,76CFC9E0,0,0,19762,5,0,145
03:58:10,76CFCDE0,0,0,19761,5,0,146
03:58:42,76CFD1E0,0,0,19762,6,0,146
03:59:14,76CFD5E0,0,0,19764,4,0,145
03:59:46,76CFD9E0,0,0,19765,4,0,143
04:00:18,76CFDDE0,0,0,19766,3,0,142
04:00:34,76CFDFE0,0,0,19766,3,0,142
04:00:50,76CFE1E0,0,0,19765,6,0,141
04:01:22,76CFE5E0,0,0,19769,3,0,141
04:01:54,76CFE9E0,0,0,19771,3,0,142
04:02:26,76CFEDE0,0,0,19911,1,0,143
04:02:58,76CFF1E0,0,0,19771,3,0,144
04:03:30,76CFF5E0,0,0,19773,0,0,144
04:04:02,76CFF9E0,0,0,19773,4,0,145
04:04:34,76CFFDE0,0,0,19773,3,0,146
04:05:06,76D001E0,0,0,19773,6,0,146
04:05:38,76D005E0,0,0,19777,1,0,144
04:06:10,76D009E0,0,0,19773,5,0,143
04:06:42,76D00DE0,0,0,19774,2,0,142
04:07:14,76D011E0,0,0,19775,4,0,141
04:07:46,76D015E0,0,0,19774,4,0,141
04:08:18,76D019E0,0,0,19777,2,0,142
04:08:50,76D01DE0,0,0,19776,3,0,143
04:09:06,76D01FE0,0,0,19776,3,0,144
04:09:22,76D021E0,0,0,19776,4,0,144
04:09:54,76D025E0,0,0,19777,3,0,144
04:10:26,76D029E0,0,0,19779,5,0,145
04:10:58,76D02DE0,0,0,19780,6,0,146
04:11:30,76D031E0,0,0,19779,5,0,146
04:12:34,76D039E0,0,0,19814,3,0,143
04:13:06,76D03DE0,0,0,19783,3,0,142
04:13:38,76D041E0,0,0,19784,6,0,141
04:14:10,76D045E0,0,0,19782,5,0,141
04:14:42,76D049E0,0,0,19783,6,0,142
04:15:14,76D04DE0,0,0,19786,5,0,143
04:15:46,76D051E0,0,0,19784,6,0,144
04:16:18,76D055E0,0,0,19788,5,0,144
04:16:50,76D059E0,0,0,19789,5,1,145
04:17:22,76D05DE0,0,0,19788,6,0,146
04:17:38,76D05FE0,0,0,19788,6,0,146
04:17:54,76D061E0,0,0,19786,5,0,146
04:18:26,76D065E0,0,0,19788,4,0,145
04:18:58,76D069E0,0,0,19789,7,0,143
04:19:30,76D06DE0,0,0,19789,5,0,142
04:20:02,76D071E0,0,0,19790,6,0,141
04:20:34,76D075E0,0,0,19790,8,0,141
04:21:06,76D079E0,0,0,19791,4,1,142
04:21:38,76D07DE0,0,0,19792,4,0,143
04:22:10,76D081E0,0,0,19792,4,0,144
04:22:42,76D085E0,0,0,19793,3,0,145
04:23:14,76D089E0,0,0,19792,3,0,145
04:23:46,76D08DE0,0,0,19795,5,1,146
04:24:18,76D091E0,0,0,19793,7,0,146
04:24:50,76D095E0,0,0,19793,5,0,145
04:25:22,76D099E0,0,0,19792,5,0,143
04:25:54,76D09DE0,0,0,19793,6,0,142
04:26:10,76D09FE0,0,0,19793,6,0,142
04:26:26,76D0A1E0,0,0,19794,5,0,141
04:26:58,76D0A5E0,0,0,19795,5,0,141
04:27:30,76D0A9E0,0,0,19795,6,0,142
04:28:02,76D0ADE0,0,0,19797,5,0,143
04:28:34,76D0B1E0,0,0,19799,8,0,144
04:29:06,76D0B5E0,0,0,19800,7,0,145
04:29:38,76D0B9E0,0,0,19800,6,0,145
04:30:10,76D0BDE0,0,0,19802,7,0,146
04:30:42,76D0C1E0,0,0,19802,6,1,146
04:31:14,76D0C5E0,0,0,19803,6,0,145
04:31:46,76D0C9E0,0,0,19804,7,0,143
04:32:18,76D0CDE0,0,0,19805,9,1,142
04:32:50,76D0D1E0,0,0,19805,7,0,141
04:33:22,76D0D5E0,0,0,19807,6,0,141
04:33:54,76D0D9E0,0,0,19807,8,0,142
04:34:26,76D0DDE0,0,0,19809,6,0,143
04:34:42,76D0DFE0,0,0,19809,6,0,143
04:34:58,76D0E1E0,0,0,19810,3,0,144
04:35:30,76D0E5E0,0,0,19811,1,0,145
04:36:02,76D0E9E0,0,0,19812,0,0,145
04:36:34,76D0EDE0,0,0,19812,0,0,145
04:37:06,76D0F1E0,0,0,19812,0,0,146
04:37:38,76D0F5E0,0,0,19805,1,0,145
04:38:10,76D0F9E0,0,0,19807,2,0,144
04:38:42,76D0FDE0,0,0,19807,3,0,142
04:39:14,76D101E0,0,0,19807,5,0,141
04:39:46,76D105E0,0,0,19807,7,0,141
04:40:18,76D109E0,0,0,19808,5,0,142
04:40:50,76D10DE0,0,0,19809,4,0,143
04:41:22,76D111E0,0,0,19809,5,0,144
04:41:54,76D115E0,0,0,19807,5,0,145
04:42:26,76D119E0,0,0,19806,4,0,145
04:42:58,76D11DE0,0,0,19808,4,0,145
04:43:14,76D11FE0,0,0,19808,4,0,146
04:43:30,76D121E0,0,0,19809,3,0,146
04:44:02,76D125E0,0,0,19807,4,0,145
04:44:34,76D129E0,0,0,19806,4,0,144
04:45:06,76D12DE0,0,0,19805,6,1,142
04:45:38,76D131E0,0,0,19807,5,0,141
04:46:10,76D135E0,0,0,19806,5,0,141
04:46:42,76D139E0,0,0,19810,4,0,142
04:47:14,76D13DE0,0,0,19810,3,0,143
04:47:46,76D141E0,0,0,19806,3,0,143
04:48:18,76D145E0,0,0,19808,1,0,144
04:48:50,76D149E0,0,0,19809,3,0,145
04:49:22,76D14DE0,0,0,19807,3,0,145
04:49:54,76D151E0,0,0,19807,4,0,146
04:50:26,76D155E0,0,0,19806,5,0,145
04:50:58,76D159E0,0,0,19807,5,0,144
04:51:30,76D15DE0,0,0,19810,2,0,143
04:51:46,76D15FE0,0,0,19810,2,0,142
04:52:02,76D161E0,0,0,19807,4,0,141
04:52:34,76D165E0,0,0,19810,3,0,141
04:53:06,76D169E0,0,0,19809,2,0,142
04:53:38,76D16DE0,0,0,19811,2,0,143
04:54:10,76D171E0,0,0,19809,3,0,144
04:54:42,76D175E0,0,0,19807,3,0,144
04:55:14,76D179E0,0,0,19809,4,0,145
04:55:46,76D17DE0,0,0,19809,3,0,146
04:56:18,76D181E0,0,0,19808,5,0,146
04:56:50,76D185E0,0,0,19810,4,1,145
04:57:22,76D189E0,0,0,19806,4,0,144
04:57:54,76D18DE0,0,0,19808,4,0,142
04:58:26,76D191E0,0,0,19808,3,0,141
04:58:58,76D195E0,0,0,19805,5,0,141
04:59:30,76D199E0,0,0,19809,4,0,142
05:00:02,76D19DE0,0,0,19808,5,0,143
05:00:18,76D19FE0,0,0,19808,5,0,143
05:00:34,76D1A1E0,0,0,19809,5,0,144
05:01:06,76D1A5E0,0,0,19809,6,0,144
05:01:38,76D1A9E0,0,0,19807,7,0,145
05:02:10,76D1ADE0,0,0,19809,7,0,146
05:02:42,76D1B1E0,0,0,19808,5,0,146
05:03:14,76D1B5E0,0,0,19809,6,0,145
05:03:46,76D1B9E0,0,0,19809,5,0,144
05:04:18,76D1BDE0,0,0,19807,6,0,143
05:04:50,76D1C1E0,0,0,19807,4,0,142
05:05:22,76D1C5E0,0,0,19810,4,0,141
05:05:54,76D1C9E0,0,0,19808,5,0,142
05:06:26,76D1CDE0,0,0,19809,4,0,143
05:06:58,76D1D1E0,0,0,19807,3,0,144
05:07:30,76D1D5E0,0,0,19808,4,0,144
05:08:02,76D1D9E0,0,0,19808,3,0,145
05:08:34,76D1DDE0,0,0,19807,6,0,146
05:08:50,76D1DFE0,0,0,19807,6,0,146
05:09:06,76D1E1E0,0,0,19806,8,0,146
05:09:38,76D1E5E0,0,0,19805,6,0,145
05:10:10,76D1E9E0,0,0,19806,6,0,144
05:10:42,76D1EDE0,0,0,19806,5,0,143
05:11:14,76D1F1E0,0,0,19806,6,0,142
05:11:46,76D1F5E0,0,0,19809,5,0,141
05:12:18,76D1F9E0,0,0,19806,5,0,142
05:12:50,76D1FDE0,0,0,19807,4,0,143
05:13:22,76D201E0,0,0,19808,5,0,144
05:13:54,76D205E0,0,0,19808,3,0,144
05:14:26,76D209E0,0,0,19808,3,0,145
05:14:58,76D20DE0,0,0,19807,5,0,146
05:15:30,76D211E0,0,0,19806,4,0,146
05:16:02,76D215E0,0,0,19805,4,0,145
05:16:34,76D219E0,0,0,19807,3,0,144
05:17:06,76D21DE0,0,0,19806,3,0,143
05:17:22,76D21FE0,0,0,19806,3,0,142
05:17:38,76D221E0,0,0,19805,6,0,142
05:18:10,76D225E0,0,0,19805,6,0,141
05:18:42,76D229E0,0,0,19804,6,0,142
05:19:14,76D22DE0,0,0,19806,6,0,143
05:19:46,76D231E0,0,0,19809,6,0,144
05:20:18,76D235E0,0,0,19810,6,0,144
05:20:50,76D239E0,0,0,19810,7,0,145
05:21:22,76D23DE0,0,0,19808,6,0,145
05:21:54,76D241E0,0,0,19812,6,0,146
05:22:26,76D245E0,0,0,19812,6,1,145
05:22:58,76D249E0,0,0,19810,6,0,144
05:23:30,76D24DE0,0,0,19811,3,0,143
05:24:02,76D251E0,0,0,19810,3,0,142
05:24:34,76D255E0,0,0,19810,5,0,141
05:25:06,76D259E0,0,0,19811,2,0,142
05:25:38,76D25DE0,0,0,19803,4,0,143
05:25:54,76D25FE0,0,0,19803,4,0,143
05:26:10,76D261E0,0,0,19805,3,0,144
05:26:42,76D265E0,0,0,19803,3,0,144
05:27:14,76D269E0,0,0,19803,4,0,145